#timestamp,LO_Frequency,Hit 
1504789215.7,286047002.6,N
1504789235.6,286046998.3,N
1504789255.4,286047000.9,N
1504789275.2,286047002.7,N
1504789295.1,286047000.8,N
1504789296.0,286047000.8,N
1504789315.8,286047002.6,N
1504789335.6,286047005.9,N
1504789355.5,286047003.4,N
1504789375.3,286047001.6,N
1504789395.1,286047001.6,N
1504789415.8,286047004.0,N
1504789435.7,286047005.8,N
1504789455.5,286047004.2,N
1504789475.3,286047004.0,N
1504789495.2,286047000.4,N
1504789515.0,286046996.6,N
1504789515.9,286046996.6,N
1504789535.7,286046995.1,N
1504789555.6,286046996.3,N
1504789575.4,286046993.9,N
1504789595.2,286046991.9,N
1504789615.1,286046991.4,N
1504789616.0,286046991.4,N
1504789635.8,286046991.2,N
1504789655.6,286046991.6,N
1504789675.5,286046989.0,N
1504789695.3,286046991.1,N
1504789715.1,286046994.0,N
1504789735.9,286046991.9,N
1504789755.7,286046990.2,N
1504789775.5,286046990.5,N
1504789795.4,286046990.8,N
1504789815.2,286046995.9,N
1504789835.0,286046999.4,N
1504789835.9,286046999.4,N
1504789855.8,286046996.6,N
1504789875.6,286046998.5,N
1504789895.4,286047000.7,N
1504789915.2,286046996.7,N
1504789935.1,286046994.2,N
1504789936.0,286046994.2,N
1504789955.8,286046994.2,N
1504789975.6,286046993.7,N
1504789995.5,286046993.5,N
1504790015.3,286046992.4,N
1504790035.1,286046990.7,P
1504790055.9,286046999.8,N
1504790075.7,286047000.5,N
1504790095.5,286046999.6,N
1504790115.4,286046999.4,N
1504790135.2,286046999.9,N
1504790155.0,286047001.4,N
1504790155.9,286047001.4,N
1504790175.8,286046995.7,N
1504790195.6,286046993.4,N
1504790215.4,286046995.9,N
1504790235.3,286046996.2,N
1504790255.1,286046993.8,N
1504790256.0,286046993.8,N
1504790275.8,286046992.0,N
1504790295.7,286046994.2,N
1504790315.5,286046995.9,N
1504790335.3,286046992.6,N
1504790355.2,286046996.0,N
1504790375.9,286046996.8,N
1504790395.7,286046997.6,N
1504790415.5,286046995.4,N
1504790435.4,286046996.9,N
1504790455.2,286046994.9,N
1504790475.0,286046999.0,N
1504790475.9,286046999.0,N
1504790495.8,286046998.5,N
1504790515.6,286046997.2,N
1504790535.4,286046997.8,N
1504790555.3,286046994.3,N
1504790575.1,286046993.7,N
1504790595.8,286046996.2,N
1504790615.7,286046995.9,N
1504790635.5,286046996.5,N
1504790655.3,286046997.6,N
1504790675.2,286046993.9,N
1504790695.9,286046993.9,N
1504790715.7,286046993.9,N
1504790735.6,286046994.0,P
1504790755.4,286047003.8,P
1504790775.2,286047000.1,N
1504790795.1,286047000.2,N
1504790796.0,286047000.2,N
1504790815.8,286047002.0,N
1504790835.6,286046999.4,N
1504790855.5,286046998.7,N
1504790875.3,286047002.0,N
1504790895.1,286047000.2,N
1504790915.9,286046998.2,N
1504790935.7,286047000.7,N
1504790955.5,286047000.2,N
1504790975.3,286047005.6,N
1504790995.2,286047005.6,N
1504791015.0,286047005.4,N
1504791015.9,286047005.4,N
1504791035.7,286047001.1,N
1504791055.6,286047000.1,N
1504791075.4,286047002.3,N
1504791095.2,286047005.9,N
1504791115.1,286047000.2,N
1504791116.0,286047000.2,N
1504791135.8,286047002.1,N
1504791155.7,286047002.1,N
1504791175.5,286047005.2,N
1504791195.3,286047005.6,N
1504791215.2,286047003.3,N
1504791235.9,286047004.6,N
1504791255.7,286047006.4,N
1504791275.5,286047003.4,N
1504791295.4,286047004.8,N
1504791315.2,286047003.7,N
1504791335.0,286047000.8,N
1504791335.9,286047000.8,N
1504791355.8,286046999.8,N
1504791375.6,286047003.7,N
1504791395.4,286047004.4,N
1504791415.3,286047005.8,N
1504791435.1,286047006.0,N
1504791455.8,286047002.7,N
1504791475.7,286047003.5,N
1504791495.5,286047003.4,N
1504791515.3,286047003.6,N
1504791535.2,286047000.1,N
1504791555.9,286046998.1,N
1504791575.7,286047000.4,N
1504791595.6,286046997.6,N
1504791615.4,286046996.8,N
1504791635.2,286046998.6,N
1504791655.0,286047002.6,N
1504791656.0,286047002.6,N
1504791675.8,286046999.5,N
1504791695.6,286046996.9,N
1504791715.4,286046998.4,N
1504791735.3,286047000.9,N
1504791755.1,286046997.2,N
1504791775.8,286046997.4,N
1504791795.7,286046995.9,N
1504791815.5,286046993.8,N
1504791835.3,286046998.3,N
1504791855.2,286046996.7,N
1504791875.9,286046996.6,N
1504791895.7,286046996.5,N
1504791915.6,286046998.2,N
1504791935.4,286047001.8,N
1504791955.2,286047005.7,N
1504791975.0,286047001.1,N
1504791976.0,286047001.1,N
1504791995.8,286046995.6,N
1504792015.6,286046994.4,N
1504792035.5,286046990.9,P
1504792055.3,286046992.4,N
1504792075.1,286046992.1,N
1504792095.8,286046993.7,N
1504792115.7,286046999.2,N
1504792135.5,286046997.0,N
1504792155.3,286046997.9,N
1504792175.2,286046994.9,N
1504792195.0,286046999.3,N
1504792195.9,286046999.3,N
1504792215.7,286046998.8,N
1504792235.6,286047000.6,N
1504792255.4,286047000.8,N
1504792275.2,286047002.0,N
1504792295.1,286047001.4,N
1504792296.0,286047001.4,N
1504792315.8,286047002.3,N
1504792335.6,286047001.1,N
1504792355.5,286046998.6,N
1504792375.3,286046998.8,N
1504792395.1,286046996.5,N
1504792415.9,286046996.6,N
1504792435.7,286046995.7,N
1504792455.5,286047000.0,N
1504792475.3,286047000.9,N
1504792495.2,286046998.2,N
1504792515.0,286047000.9,N
1504792515.9,286047000.9,N
1504792535.7,286046997.8,N
1504792555.6,286047000.4,N
1504792575.4,286046998.2,N
1504792595.2,286047000.8,N
1504792615.1,286046998.2,N
1504792616.0,286046998.2,N
1504792635.8,286047002.8,N
1504792655.6,286047003.1,N
1504792675.5,286047001.6,N
1504792695.3,286047002.4,N
1504792715.1,286047000.4,N
1504792735.9,286047001.4,N
1504792755.7,286047005.9,P
1504792775.5,286047001.5,N
1504792795.4,286047004.0,N
